When you browse on this site, cookies collect data to enhance your experience and personalize the content and advertising you see.
Visit our Privacy Policy to learn more. By continuing to use the site, you agree to this use of cookies and data.
  • En España
  • Lista de países
  • Para 7 días
  • Temperatura del agua
  • El tiempo en el mapa
  • Informadores
  • user-avatar
    Iniciar sesión

    Tiempo cada hora Marianske Lazni

    Hoy, 1 Junio, Lunes

    Tiempo Temperatura Precipitaciones Viento Presión Humedad
    00:00 +9°C° 0 mm 1 mps 712 mmHg 95%
    01:00 +9°C° 0 mm 1 mps 712 mmHg 96%
    02:00 +9°C° 0 mm 1 mps 712 mmHg 96%
    03:00 +9°C° 0 mm 1 mps 712 mmHg 96%
    04:00 +9°C° 0 mm 1 mps 712 mmHg 96%
    05:00 +10°C° 0 mm 1 mps 712 mmHg 91%
    06:00 +12°C° 0 mm 1 mps 713 mmHg 87%
    07:00 +14°C° 0 mm 1 mps 714 mmHg 79%
    08:00 +16°C° 0 mm 1 mps 714 mmHg 70%
    09:00 +17°C° 0 mm 2 mps 714 mmHg 61%
    10:00 +19°C° 0 mm 3 mps 714 mmHg 51%
    11:00 +19°C° 0 mm 3 mps 714 mmHg 50%
    12:00 +20°C° 0 mm 3 mps 714 mmHg 48%
    13:00 +20°C° 0 mm 4 mps 713 mmHg 46%
    14:00 +20°C° 0 mm 4 mps 713 mmHg 49%
    15:00 +20°C° 0 mm 4 mps 713 mmHg 52%
    16:00 +20°C° 0 mm 4 mps 713 mmHg 55%
    17:00 +19°C° 0 mm 3 mps 713 mmHg 61%
    18:00 +17°C° 0 mm 3 mps 712 mmHg 67%
    19:00 +16°C° 0 mm 2 mps 712 mmHg 74%
    20:00 +14°C° 0 mm 2 mps 712 mmHg 79%
    21:00 +13°C° 0 mm 2 mps 712 mmHg 85%
    22:00 +10°C° 0 mm 2 mps 712 mmHg 90%
    23:00 +9°C° 0 mm 2 mps 712 mmHg 90%

    Mañana, 2 Junio, Martes

    Tiempo Temperatura Precipitaciones Viento Presión Humedad
    00:00 +9°C° 0 mm 1 mps 712 mmHg 89%
    01:00 +9°C° 0 mm 1 mps 712 mmHg 89%
    02:00 +8°C° 0 mm 1 mps 712 mmHg 88%
    03:00 +8°C° 0 mm 1 mps 711 mmHg 87%
    04:00 +7°C° 0 mm 1 mps 711 mmHg 86%
    05:00 +9°C° 0 mm 1 mps 712 mmHg 79%
    06:00 +12°C° 0 mm 1 mps 712 mmHg 72%
    07:00 +14°C° 0 mm 1 mps 712 mmHg 65%
    08:00 +15°C° 0 mm 2 mps 712 mmHg 59%
    09:00 +17°C° 0 mm 3 mps 712 mmHg 54%
    10:00 +18°C° 0 mm 3 mps 712 mmHg 48%
    11:00 +19°C° 0 mm 3 mps 712 mmHg 47%
    12:00 +20°C° 0 mm 3 mps 712 mmHg 46%
    13:00 +20°C° 0 mm 4 mps 711 mmHg 44%
    14:00 +20°C° 0 mm 4 mps 711 mmHg 46%
    15:00 +20°C° 0 mm 4 mps 710 mmHg 48%
    16:00 +20°C° 0 mm 4 mps 710 mmHg 50%
    17:00 +19°C° 0 mm 3 mps 709 mmHg 57%
    18:00 +17°C° 0 mm 2 mps 709 mmHg 64%
    19:00 +16°C° 0 mm 2 mps 709 mmHg 71%
    20:00 +14°C° 0 mm 1 mps 708 mmHg 77%
    21:00 +12°C° 0 mm 1 mps 708 mmHg 83%
    22:00 +11°C° 0 mm 1 mps 708 mmHg 88%
    23:00 +9°C° 0 mm 0 mps 707 mmHg 89%

    Pasado mañana, 3 Junio, Miércoles

    Tiempo Temperatura Precipitaciones Viento Presión Humedad
    00:00 +9°C° 0 mm 0 mps 707 mmHg 89%
    01:00 +9°C° 0 mm 0 mps 707 mmHg 89%
    02:00 +8°C° 0 mm 0 mps 706 mmHg 89%
    03:00 +8°C° 0 mm 0 mps 706 mmHg 90%
    04:00 +9°C° 0 mm 1 mps 705 mmHg 90%
    05:00 +11°C° 0 mm 1 mps 705 mmHg 84%
    06:00 +13°C° 0 mm 1 mps 705 mmHg 78%
    07:00 +14°C° 0 mm 1 mps 705 mmHg 72%
    08:00 +16°C° 0 mm 1 mps 705 mmHg 65%
    09:00 +19°C° 0 mm 1 mps 705 mmHg 58%
    10:00 +19°C° 0 mm 2 mps 705 mmHg 51%
    11:00 +21°C° 0.1 mm 1 mps 704 mmHg 49%
    12:00 +22°C° 0.1 mm 1 mps 704 mmHg 47%
    13:00 +23°C° 0.1 mm 1 mps 704 mmHg 44%
    14:00 +22°C° 0.2 mm 1 mps 703 mmHg 48%
    15:00 +22°C° 0.2 mm 1 mps 703 mmHg 51%
    16:00 +21°C° 0.2 mm 1 mps 702 mmHg 54%
    17:00 +19°C° 0.1 mm 2 mps 701 mmHg 62%
    18:00 +18°C° 0.1 mm 2 mps 701 mmHg 71%
    19:00 +17°C° 0.1 mm 2 mps 700 mmHg 79%
    20:00 +15°C° 0 mm 2 mps 700 mmHg 83%
    21:00 +13°C° 0 mm 1 mps 700 mmHg 87%
    22:00 +12°C° 0 mm 1 mps 700 mmHg 91%
    23:00 +12°C° 0 mm 1 mps 699 mmHg 91%

    4 Junio, Jueves

    Tiempo Temperatura Precipitaciones Viento Presión Humedad
    00:00 +11°C° 0 mm 1 mps 699 mmHg 91%
    01:00 +11°C° 0 mm 1 mps 699 mmHg 91%
    02:00 +11°C° 0 mm 1 mps 698 mmHg 92%
    03:00 +10°C° 0 mm 1 mps 698 mmHg 92%
    04:00 +10°C° 0 mm 1 mps 698 mmHg 93%
    05:00 +11°C° 0 mm 1 mps 698 mmHg 89%
    06:00 +13°C° 0 mm 1 mps 697 mmHg 85%
    07:00 +14°C° 0 mm 1 mps 697 mmHg 82%
    08:00 +14°C° 0.2 mm 2 mps 697 mmHg 84%
    09:00 +14°C° 0.2 mm 2 mps 697 mmHg 86%
    10:00 +14°C° 0.2 mm 2 mps 697 mmHg 88%
    11:00 +14°C° 0.2 mm 3 mps 696 mmHg 85%
    12:00 +16°C° 0.2 mm 3 mps 696 mmHg 82%
    13:00 +17°C° 0.2 mm 3 mps 696 mmHg 80%
    14:00 +17°C° 0.6 mm 3 mps 695 mmHg 79%
    15:00 +18°C° 0.6 mm 3 mps 695 mmHg 78%
    16:00 +19°C° 0.6 mm 3 mps 694 mmHg 77%
    17:00 +17°C° 1.3 mm 3 mps 694 mmHg 83%
    18:00 +16°C° 1.3 mm 3 mps 694 mmHg 89%
    19:00 +13°C° 1.3 mm 3 mps 693 mmHg 95%
    20:00 +13°C° 1.5 mm 3 mps 693 mmHg 95%
    21:00 +12°C° 1.5 mm 4 mps 694 mmHg 95%
    22:00 +12°C° 1.5 mm 4 mps 694 mmHg 95%
    23:00 +11°C° 0.5 mm 4 mps 694 mmHg 96%

    5 Junio, Viernes

    Tiempo Temperatura Precipitaciones Viento Presión Humedad
    00:00 +11°C° 0.5 mm 3 mps 694 mmHg 96%
    01:00 +12°C° 0.5 mm 2 mps 694 mmHg 97%
    02:00 +11°C° 0.1 mm 3 mps 694 mmHg 97%
    03:00 +10°C° 0.1 mm 3 mps 695 mmHg 97%
    04:00 +10°C° 0.1 mm 3 mps 695 mmHg 97%
    05:00 +9°C° 0.2 mm 3 mps 695 mmHg 96%
    06:00 +8°C° 0.2 mm 3 mps 696 mmHg 95%
    07:00 +6°C° 0.2 mm 4 mps 696 mmHg 94%
    08:00 +7°C° 0 mm 4 mps 697 mmHg 88%
    09:00 +8°C° 0 mm 4 mps 697 mmHg 82%
    10:00 +10°C° 0 mm 4 mps 698 mmHg 77%
    11:00 +11°C° 0.1 mm 4 mps 699 mmHg 70%
    12:00 +11°C° 0.1 mm 4 mps 699 mmHg 63%
    13:00 +12°C° 0.1 mm 5 mps 700 mmHg 57%
    14:00 +12°C° 0 mm 5 mps 700 mmHg 55%
    15:00 +13°C° 0 mm 5 mps 700 mmHg 53%
    16:00 +13°C° 0 mm 5 mps 700 mmHg 51%
    17:00 +12°C° 0 mm 5 mps 700 mmHg 56%
    18:00 +12°C° 0 mm 4 mps 700 mmHg 60%
    19:00 +11°C° 0 mm 4 mps 700 mmHg 64%
    20:00 +10°C° 0 mm 3 mps 701 mmHg 70%
    21:00 +8°C° 0 mm 3 mps 701 mmHg 76%
    22:00 +7°C° 0 mm 3 mps 701 mmHg 82%
    23:00 +7°C° 0 mm 3 mps 701 mmHg 83%

    6 Junio, Sábado

    Tiempo Temperatura Precipitaciones Viento Presión Humedad
    00:00 +7°C° 0 mm 3 mps 701 mmHg 84%
    01:00 +7°C° 0 mm 3 mps 701 mmHg 85%
    02:00 +6°C° 0 mm 4 mps 701 mmHg 84%
    03:00 +7°C° 0 mm 4 mps 701 mmHg 84%
    04:00 +7°C° 0 mm 4 mps 702 mmHg 83%
    05:00 +7°C° 0.1 mm 4 mps 702 mmHg 86%
    06:00 +8°C° 0.1 mm 4 mps 702 mmHg 88%
    07:00 +8°C° 0.1 mm 4 mps 702 mmHg 91%
    08:00 +9°C° 0.1 mm 5 mps 702 mmHg 90%
    09:00 +10°C° 0.1 mm 5 mps 703 mmHg 88%
    10:00 +12°C° 0.1 mm 5 mps 703 mmHg 86%
    11:00 +12°C° 0.3 mm 5 mps 703 mmHg 85%
    12:00 +13°C° 0.3 mm 5 mps 703 mmHg 83%
    13:00 +13°C° 0.3 mm 5 mps 703 mmHg 82%
    14:00 +14°C° 0.2 mm 5 mps 703 mmHg 76%
    15:00 +15°C° 0.2 mm 5 mps 704 mmHg 71%
    16:00 +16°C° 0.2 mm 6 mps 704 mmHg 65%
    17:00 +15°C° 0.1 mm 5 mps 704 mmHg 69%
    18:00 +14°C° 0.1 mm 4 mps 704 mmHg 73%
    19:00 +15°C° 0.1 mm 2 mps 704 mmHg 78%
    20:00 +13°C° 0 mm 2 mps 704 mmHg 83%
    21:00 +12°C° 0 mm 2 mps 704 mmHg 89%
    22:00 +10°C° 0 mm 1 mps 704 mmHg 94%
    23:00 +11°C° 0 mm 1 mps 704 mmHg 94%
    Mostrar más